Weather History for LHUD - June, 2013

Change the Weather History Date:

Friday, June 14, 2013

  Actual Average (LRAR) Record (LRAR)
Temperature  
Mean Temperature 70 °F -  
Max Temperature 84 °F 79 °F 98 °F (2000)
Min Temperature 55 °F 57 °F 48 °F (1998)
Cooling Degree Days 4    
Growing Degree Days 20 (Base 50)    
Moisture  
Dew Point 59 °F    
Average Humidity 64    
Maximum Humidity 100    
Minimum Humidity 32    
Precipitation  
Precipitation 0.00 in 0.08 in - ()
Sea Level Pressure  
Sea Level Pressure 30.01 in    
Wind  
Wind Speed 3 mph ()    
Max Wind Speed 8 mph    
Max Gust Speed -    
Visibility 10.0 miles    
Events      
Averages and records for this station are not official NWS values.
T = Trace of Precipitation, MM = Missing Value Source: Averaged Metar Reports

Daily Weather History Graph

Daily Weather History Graph

Search for Another Location

Airport or City:

Trip Planner

Search our weather history database for the weather conditions in past years. The results will help you decide how hot, cold, wet, or windy it might be!

Date:

Astronomy

Jun. 14, 2013 Rise Set
Actual Time 4:47 AM CEST 8:32 PM CEST
Civil Twilight 4:08 AM CEST 9:11 PM CEST
Nautical Twilight 3:16 AM CEST 10:04 PM CEST
Astronomical Twilight 2:02 AM CEST 11:17 PM CEST
Moon 10:20 AM CEST (6/14) 11:41 PM CEST (6/14)
Length of Visible Light 17h 03m
Length of Day
15h 45m
Waxing Crescent, 28% of the Moon is Illuminated
Jun 14
Waxing Crescent
Jun 16
First Quarter
Jun 23
Full
Jun 30
Last Quarter
Jul 8
New

Hourly Weather History & Observations

Time (CEST) Temp. Heat Index Dew Point Humidity Pressure Visibility Wind Dir Wind Speed Gust Speed Precip Events Conditions
12:45 AM 59.0 °F - 59.0 °F 100% 30.04 in - NW 2.3 mph - N/A   Clear
1:45 AM 59.0 °F - 57.2 °F 94% 30.01 in - NW 2.3 mph - N/A   Clear
2:00 AM 59 °F - 58 °F 95% 30.02 in 16 mi NW 2.2 mph - -   Partly Cloudy
2:45 AM 59.0 °F - 57.2 °F 94% 30.01 in - NW 2.3 mph - N/A   Clear
3:45 AM 57.2 °F - 55.4 °F 94% 30.01 in - NNW 3.5 mph - N/A   Clear
4:45 AM 57.2 °F - 55.4 °F 94% 30.01 in - Calm Calm - N/A   Clear
5:45 AM 57.2 °F - 55.4 °F 94% 30.01 in - Calm Calm - N/A   Clear
6:15 AM 60.8 °F - 59.0 °F 94% 30.01 in - West 1.2 mph - N/A   Clear
6:45 AM 66.2 °F - 59.0 °F 78% 30.01 in - Calm Calm - N/A   Clear
7:15 AM 66.2 °F - 60.8 °F 83% 30.01 in - NW 2.3 mph - N/A   Clear
7:45 AM 69.8 °F - 60.8 °F 73% 30.04 in - NNW 1.2 mph - N/A   Clear
8:00 AM 69 °F - 62 °F 71% 30.01 in 25 mi NNW 2.2 mph - -   Partly Cloudy
8:15 AM 73.4 °F - 62.6 °F 69% 30.04 in - NE 2.3 mph - N/A   Clear
8:45 AM 75.2 °F - 60.8 °F 61% 30.04 in - North 2.3 mph - N/A   Clear
9:15 AM 77.0 °F - 64.4 °F 65% 30.04 in - ENE 1.2 mph - N/A   Clear
9:45 AM 78.8 °F - 59.0 °F 51% 30.04 in 6.2 mi NNE 2.3 mph - N/A   Partly Cloudy
10:15 AM 78.8 °F - 60.8 °F 54% 30.04 in 6.2 mi NW 3.5 mph - N/A   Partly Cloudy
10:45 AM 78.8 °F - 60.8 °F 54% 30.04 in 6.2 mi NNW 4.6 mph - N/A   Partly Cloudy
11:15 AM 80.6 °F 81.5 °F 60.8 °F 51% 30.04 in 6.2 mi West 4.6 mph - N/A   Partly Cloudy
11:45 AM 78.8 °F - 55.4 °F 44% 30.04 in - NW 3.5 mph - N/A   Clear
12:15 PM 80.6 °F 80.8 °F 57.2 °F 45% 30.04 in - WNW 5.8 mph - N/A   Clear
12:45 PM 80.6 °F 80.8 °F 57.2 °F 45% 30.04 in - NNW 5.8 mph - N/A   Clear
1:15 PM 82.4 °F 82.5 °F 59.0 °F 45% 30.04 in - NW 5.8 mph - N/A   Clear
1:45 PM 82.4 °F 82.0 °F 57.2 °F 42% 30.01 in - NW 4.6 mph - N/A   Clear
2:00 PM 83 °F - 58 °F 32% 30.01 in 25 mi NW 4.5 mph - -   Partly Cloudy
2:15 PM 82.4 °F 82.0 °F 57.2 °F 42% 30.01 in - NW 5.8 mph - N/A   Clear
2:45 PM 84.2 °F 83.8 °F 59.0 °F 42% 30.01 in - NW 4.6 mph - N/A   Clear
3:15 PM 80.6 °F 80.8 °F 57.2 °F 45% 30.01 in - NW 8.1 mph - N/A   Clear
3:45 PM 82.4 °F 82.5 °F 59.0 °F 45% 30.01 in - North 5.8 mph - N/A   Clear
4:15 PM 82.4 °F 82.0 °F 57.2 °F 42% 30.01 in - NW 6.9 mph - N/A   Clear
4:45 PM 82.4 °F 81.7 °F 55.4 °F 39% 29.98 in - WNW 8.1 mph - N/A   Clear
5:15 PM 80.6 °F 80.8 °F 57.2 °F 45% 29.98 in - NNW 8.1 mph - N/A   Clear
5:45 PM 82.4 °F 82.5 °F 59.0 °F 45% 30.01 in - NNW 8.1 mph - N/A   Clear
6:15 PM 78.8 °F - 59.0 °F 51% 29.98 in - NNW 8.1 mph - N/A   Clear
6:45 PM 80.6 °F 81.1 °F 59.0 °F 48% 29.98 in - NNW 6.9 mph - N/A   Clear
7:15 PM 78.8 °F - 60.8 °F 54% 29.98 in - NNW 5.8 mph - N/A   Clear
7:45 PM 75.2 °F - 60.8 °F 61% 29.98 in - NNW 5.8 mph - N/A   Clear
8:00 PM 76 °F - 60 °F 49% 29.98 in 19 mi NNW 6.7 mph - -   Partly Cloudy
8:15 PM 73.4 °F - 62.6 °F 69% 29.98 in - NW 3.5 mph - N/A   Clear
8:45 PM 71.6 °F - 62.6 °F 73% 29.98 in - WNW 2.3 mph - N/A   Clear
9:15 PM 68.0 °F - 62.6 °F 83% 30.01 in - Calm Calm - N/A   Clear
9:45 PM 66.2 °F - 60.8 °F 83% 30.01 in - West 4.6 mph - N/A   Clear
10:45 PM 64.4 °F - 60.8 °F 88% 30.01 in - West 2.3 mph - N/A   Clear
11:45 PM 62.6 °F - 59.0 °F 88% 30.01 in - NNE 1.2 mph - N/A   Clear